Weather History for Fort Smith, AR

Change the Weather History Date:

Saturday, January 19, 2013

  Actual Average Record
Temperature  
Mean Temperature 49 °F 39 °F  
Max Temperature 67 °F 50 °F 81 °F (1952)
Min Temperature 30 °F 29 °F -2 °F (1940)
Degree Days  
Heating Degree Days 16 26  
Month to date heating degree days 455 494  
Since 1 July heating degree days 1547 1793  
Moisture  
Dew Point 32 °F    
Average Humidity 54    
Maximum Humidity 78    
Minimum Humidity 29    
Precipitation  
Precipitation 0.00 in 0.09 in 1.86 in (1954)
Month to date precipitation 1.23 1.69  
Year to date precipitation 1.23 1.69  
Sea Level Pressure  
Sea Level Pressure 30.21 in    
Wind  
Wind Speed 4 mph (SSW)    
Max Wind Speed 15 mph    
Max Gust Speed 23 mph    
Visibility 10 miles    
Events      
T = Trace of Precipitation, MM = Missing Value Source: NWS Daily Summary

Daily Weather History Graph

Daily Weather History Graph

Search for Another Location

Airport:

Trip Planner

Search our weather history database for the weather conditions in past years. The results will help you decide how hot, cold, wet, or windy it might be!

Date:

Astronomy

Jan. 19, 2013 Rise Set
Actual Time 7:24 AM CST 5:32 PM CST
Civil Twilight 6:56 AM CST 6:00 PM CST
Nautical Twilight 6:25 AM CST 6:31 PM CST
Astronomical Twilight 5:55 AM CST 7:01 PM CST
Moon 11:56 AM CST (1/19) 1:02 AM CST (1/19)
Length of Visible Light 11h 03m
Length of Day
10h 08m
First Quarter, 57% of the Moon is Illuminated
Jan 19
First Quarter
Jan 26
Full
Feb 3
Last Quarter
Feb 10
New
Feb 17
First Quarter

Hourly Weather History & Observations

Time (CST) Temp. Windchill Dew Point Humidity Pressure Visibility Wind Dir Wind Speed Gust Speed Precip Events Conditions
12:53 AM 36.0 °F - 27.0 °F 70% 30.27 in 10.0 mi Calm Calm - N/A   Clear
1:53 AM 36.0 °F - 27.0 °F 70% 30.27 in 10.0 mi Calm Calm - N/A   Clear
2:53 AM 33.1 °F - 26.1 °F 75% 30.27 in 10.0 mi Calm Calm - N/A   Clear
3:53 AM 32.0 °F 28.7 °F 25.0 °F 75% 30.25 in 10.0 mi ENE 3.5 mph - N/A   Clear
4:53 AM 33.1 °F 30.0 °F 26.1 °F 75% 30.24 in 10.0 mi NE 3.5 mph - N/A   Clear
5:53 AM 33.1 °F 30.0 °F 27.0 °F 78% 30.23 in 10.0 mi NNE 3.5 mph - N/A   Clear
6:53 AM 32.0 °F - 26.1 °F 79% 30.23 in 10.0 mi Calm Calm - N/A   Clear
7:53 AM 33.1 °F - 27.0 °F 78% 30.24 in 10.0 mi Calm Calm - N/A   Clear
8:53 AM 37.9 °F 33.5 °F 28.9 °F 70% 30.25 in 10.0 mi NE 5.8 mph - N/A   Clear
9:53 AM 44.1 °F 40.8 °F 30.0 °F 58% 30.27 in 10.0 mi NNE 5.8 mph - N/A   Clear
10:53 AM 48.9 °F - 33.1 °F 54% 30.26 in 10.0 mi NE 5.8 mph - N/A   Clear
11:53 AM 57.0 °F - 34.0 °F 42% 30.21 in 10.0 mi Calm Calm - N/A   Clear
12:53 PM 64.0 °F - 35.1 °F 34% 30.17 in 10.0 mi SW 12.7 mph - N/A   Clear
1:53 PM 64.9 °F - 34.0 °F 32% 30.13 in 10.0 mi SW 10.4 mph - N/A   Clear
2:53 PM 66.9 °F - 34.0 °F 30% 30.12 in 10.0 mi WSW 10.4 mph - N/A   Clear
3:53 PM 66.0 °F - 34.0 °F 30% 30.12 in 10.0 mi SW 13.8 mph - N/A   Clear
4:53 PM 63.0 °F - 35.1 °F 35% 30.12 in 10.0 mi SSW 8.1 mph - N/A   Clear
5:53 PM 59.0 °F - 35.1 °F 41% 30.14 in 10.0 mi SSW 6.9 mph - N/A   Clear
6:53 PM 55.9 °F - 36.0 °F 47% 30.15 in 10.0 mi SSW 5.8 mph - N/A   Clear
7:53 PM 52.0 °F - 36.0 °F 54% 30.18 in 10.0 mi SW 3.5 mph - N/A   Clear
8:53 PM 45.0 °F - 35.1 °F 68% 30.21 in 10.0 mi Calm Calm - N/A   Clear
9:53 PM 45.0 °F - 36.0 °F 71% 30.21 in 10.0 mi Calm Calm - N/A   Clear
10:53 PM 42.1 °F - 36.0 °F 79% 30.22 in 10.0 mi Calm Calm - N/A   Clear
11:53 PM 43.0 °F - 35.1 °F 74% 30.22 in 10.0 mi Calm Calm - N/A   Clear